OpenBCM V1.08-5-g2f4a (Linux)

Packet Radio Mailbox

IZ3LSV

[San Dona' di P. JN]

 Login: GUEST





  
LU9DCE > KEPS     29.12.17 21:46l 252 Lines 12505 Bytes #999 (0) @ LUNET
BID : 27870_LU9DCE
Read: GUEST
Subj: SAT TLE OF 22
Path: IZ3LSV<IQ2LB<IK1NHL<CX2SA<HP2BWJ<LU4ECL<LU9DCE
Sent: 171222/1601Z @:LU9DCE.TOR.BA.ARG.SOAM #:27870 [TORTUGUITAS] FBB7.0.8-beta
From: LU9DCE@LU9DCE.TOR.BA.ARG.SOAM
To  : KEPS@LUNET


            __    _  _  ___  ____   ___  ____    ____  ____  ____
           (  )  / )( \/ _ \(    \ / __)(  __)  (  _ \(  _ \/ ___)
           / (_/\) \/ (\__  )) D (( (__  ) _)    ) _ ( ) _ (\___ \
           \____/\____/(___/(____/ \___)(____)  (____/(____/(____/
               ESTACION DE PACKET RADIO - BUENOS AIRES (GF05OM)
                   BOLETINES INFORMATIVOS PROGRAMADOS (BIP)
                    LU9DCE@GMX.COM - RF 147070 @ 1200 BAUD
                        https://lu9dce.wordpress.com/

+------------------------------------------------------------------------------+
OSCAR 7
1  7530U 74089B   17355.92536862 -.00000034 +00000-0 +64575-4 0  9994
2  7530 101.6608 321.0999 0012031 319.9902 066.9608 12.53630339972156
OSCAR 11 (UoSAT 2)
1 14781U 84021B   17355.61423421  .00000098  00000-0  18235-4 0  9990
2 14781  97.6734  34.1692 0007332 312.2515  47.8076 14.82967067818120
OSCAR 19 (LUSAT)
1 20442U 90005G   17356.05640054  .00000013  00000-0  20835-4 0  9998
2 20442  98.5939 290.8002 0011025 317.5679  42.4652 14.32881999458526
KITSAT B
1 22825U 93061C   17356.48029835  .00000001  00000-0  17988-4 0  9997
2 22825  98.8395 324.6261 0009069 136.8046 223.3849 14.30017117264311
POSAT 1
1 22826U 93061D   17356.46802162  .00000004  00000-0  19347-4 0  9992
2 22826  98.8336 324.6732 0009713 127.7828 232.4235 14.30347539264496
RADIO ROSTO
1 23439U 94085A   17356.40534334 -.00000056  00000-0 -37191-3 0  9992
2 23439  64.8170 274.7438 0162951 213.4030 268.3172 11.27566331946790
JAS 2
1 24278U 96046B   17355.61395147 -.00000028  00000-0  87960-5 0  9991
2 24278  98.5329 213.6654 0349797 211.4285 146.5527 13.53080391 54226
TECHSAT 1B
1 25397U 98043D   17355.92037913 -.00000003 +00000-0 +17751-4 0  9994
2 25397 098.6317 294.4713 0001720 135.1023 225.0295 14.23636337010281
ISS (ZARYA)
1 25544U 98067A   17356.51955860  .00000877  00000-0  20451-4 0  9999
2 25544  51.6386 179.4534 0003481 247.8676 209.6911 15.54200510 91045
PCSAT
1 26931U 01043C   17355.90663816 -.00000023 +00000-0 +23081-4 0  9993
2 26931 067.0517 326.8429 0005233 271.2105 088.8397 14.30488036847126
SAUDISAT 1C
1 27607U 02058C   17355.89870656 +.00000045 +00000-0 +27028-4 0  9999
2 27607 064.5560 271.9130 0043504 014.1077 346.1229 14.75404549806676
CUTE-1
1 27844U 03031E   17355.93695921 +.00000056 +00000-0 +45061-4 0  9998
2 27844 098.6884 002.2015 0010155 159.0176 201.1420 14.22083684750966
CUBESAT XI 4
1 27848U 03031J   17356.55097601  .00000037  00000-0  36518-4 0  9998
2 27848  98.6976   3.1416 0009874 166.7726 193.3713 14.21692075750965
MOZHAYETS 4
1 27939U 03042A   17356.54904030  .00000083  00000-0  23405-4 0  9995
2 27939  97.9643 135.5406 0012710 354.7286  76.2748 14.66641787760928
CUBESAT XI 5
1 28895U 05043F   17356.40470033  .00000151  00000-0  37834-4 0  9993
2 28895  97.8842 150.2879 0015540 268.0287  91.9136 14.63488727648010
CUTE-1.7+APD II
1 32785U 08021C   17356.20057896  .00000253  00000-0  33156-4 0  9997
2 32785  97.5548  11.7709 0011629 264.8291  95.1600 14.88031589522851
DELFI C3
1 32789U 08021G   17356.15619126  .00001605  00000-0  11530-3 0  9998
2 32789  97.5373  50.2671 0012887 175.1074 185.0281 15.05611378525146
SEEDS
1 32791U 08021J   17356.10566778  .00000314  00000-0  37606-4 0  9999
2 32791  97.5482  16.5996 0012080 245.2697 114.7265 14.90424888523139
YUBELEINY
1 32953U 08025A   17356.21493023  .00000020  00000-0  69904-4 0  9997
2 32953  82.5026 122.7438 0018819 233.5027 126.4320 12.43080624434787
PRISM (HITOMI)
1 33493U 09002B   17356.40255212  .00001419  00000-0  13186-3 0  9993
2 33493  98.1474 246.5462 0015039 174.3790 185.7569 14.96016960483913
KKS-1 (KISEKI)
1 33499U 09002H   17355.88913095 +.00000142 +00000-0 +28984-4 0  9995
2 33499 098.3449 166.9855 0010129 132.2439 227.9630 14.75275789478614
SWISSCUBE
1 35932U 09051B   17355.94499605 +.00000159 +00000-0 +46884-4 0  9993
2 35932 098.5201 138.1200 0008242 041.5288 318.6534 14.56101880437602
BEESAT
1 35933U 09051C   17356.39749000  .00000138  00000-0  42047-4 0  9995
2 35933  98.5239 140.0149 0006657  53.9061 306.2752 14.56211823437819
ITUPSAT 1
1 35935U 09051E   17355.94028857 +.00000122 +00000-0 +39207-4 0  9994
2 35935 098.5351 139.8023 0008888 048.1638 312.0316 14.55396027437514
XIWANG-1 (HOPE-1)
1 36122U 09072B   17356.22482182 -.00000038  00000-0  97635-5 0  9990
2 36122 100.0866  14.0688 0007764 156.8955 203.2509 13.16342720385362
TISAT 1
1 36799U 10035E   17356.31576383  .00000526  00000-0  59656-4 0  9999
2 36799  98.0832 123.1484 0013550  71.9124 288.3568 14.90645233403809
JUGNU
1 37839U 11058B   17356.18136065  .00000310  00000-0  23702-4 0  9999
2 37839  19.9628  30.5655 0019188  95.4254 313.1934 14.12604720320317
SRMSAT
1 37841U 11058D   17356.22365434  .00000293  00000-0  15958-4 0  9995
2 37841  19.9726  75.8613 0011909 347.6723  29.2160 14.10594864319860
M-CUBED/EXP-1 PRIME
1 37855U 11061F   17355.87006719 +.00001650 +00000-0 +92729-4 0  9991
2 37855 101.7188 322.7026 0178010 246.8107 111.4267 15.03921695334523
HORYU 2
1 38340U 12025D   17355.94546847 +.00000240 +00000-0 +43435-4 0  9995
2 38340 098.3753 006.4963 0012629 058.4109 301.8330 14.75469914290560
STRAND 1
1 39090U 13009E   17356.14609862  .00000035  00000-0  27535-4 0  9996
2 39090  98.5347 199.6572 0010272 101.4475 258.7864 14.35002600252439
BEESAT 3
1 39134U 13015E   17355.95581860 +.00001542 +00000-0 +83040-4 0  9994
2 39134 064.8659 339.9934 0029783 234.5562 125.2784 15.18645032257600
SOMP
1 39135U 13015F   17355.75864687  .00001364  00000-0  79578-4 0  9997
2 39135  64.8692 351.7301 0031294 256.6622 103.1014 15.16251663257747
BEESAT 2
1 39136U 13015G   17356.19495575  .00001414  00000-0  83202-4 0  9998
2 39136  64.8699 352.6430 0032538 256.5376 103.2123 15.15741366257762
CUBEBUG 1
1 39153U 13018D   17356.21676298  .00000268  00000-0  42082-4 0  9993
2 39153  97.9834  87.5077 0017657 155.7428 204.4618 14.80310960251415
ZACUBE
1 39417U 13066B   17356.15065149  .00000273  00000-0  40880-4 0  9999
2 39417  97.6077  29.0535 0059529  16.3591 343.9526 14.80845526220594
TRITON 1
1 39427U 13066M   17355.96834616 +.00000238 +00000-0 +45655-4 0  9997
2 39427 097.6362 358.7237 0115557 106.9882 254.4026 14.67583969218397
GOMX 1
1 39430U 13066Q   17356.50595447  .00000170  00000-0  39621-4 0  9999
2 39430  97.6789 341.3234 0151936 167.8355 192.6582 14.58992689217393
HUMSAT D
1 39433U 13066T   17356.16173182  .00000515  00000-0  56378-4 0  9993
2 39433  97.6299  53.5085 0029871 313.7157  46.1588 14.91693694222039
50 SAT
1 39436U 13066W   17355.77832980  .00053050  00000-0  85172-3 0  9995
2 39436  97.7121 112.7505 0006177 124.3827 235.8010 15.52859142225586
CUBEBUG 2
1 39440U 13066AA  17355.95560259 +.00000287 +00000-0 +46909-4 0  9997
2 39440 097.6127 016.6285 0081712 051.7441 309.1086 14.75582825218581
FUNCUBE 1
1 39444U 13066AE  17356.17082879  .00000324  00000-0  46579-4 0  9998
2 39444  97.6091  30.3703 0058558  12.3867 347.8770 14.81605641219444
UWE-3
1 39446U 13066AG  17355.60483746  .00000273  00000-0  43036-4 0  9993
2 39446  97.6090  22.0754 0071109  35.8467 324.7486 14.78115901218888
SPROUT
1 39770U 14029E   17356.51903515  .00000758  00000-0  91614-4 0  9998
2 39770  97.8765  94.1316 0010550  72.3960 287.8429 14.86595657194114
UNISAT 6
1 40012U 14033C   17356.21498474  .00000245  00000-0  44076-4 0  9995
2 40012  97.8313 233.7681 0059645  49.9750 310.6671 14.73738846188634
DUCHIFAT 1
1 40021U 14033M   17356.19871656  .00000522  00000-0  59753-4 0  9995
2 40021  97.9170 269.6009 0014089  45.8065 314.4307 14.90143999190599
QB50P1
1 40025U 14033R   17355.76506292 +.00000388 +00000-0 +47700-4 0  9991
2 40025 097.9087 266.4915 0013686 052.3491 307.8965 14.88599152189888
CHUBUSAT 1
1 40300U 14070C   17356.16536927  .00001010  00000-0  48021-4 0  9991
2 40300  97.3828  72.5218 0020837 158.5244 260.3152 15.21303039173366
NUDT-PHONESAT
1 40900U 15049B   17356.19620152  .00002394  00000-0  11239-3 0  9997
2 40900  97.4424   1.5850 0012135 291.4713  68.5228 15.20554401125010
ZDPS 2A
1 40901U 15049C   17356.48961764  .00001031  00000-0  55890-4 0  9996
2 40901  97.4584   0.6502 0012348 295.1231  64.8721 15.16751224124871
ZDPS 2B
1 40902U 15049D   17356.17637548  .00001012  00000-0  55196-4 0  9991
2 40902  97.4468 358.6673 0012401 293.0726  66.9199 15.16564249124819
XW-2A
1 40903U 15049E   17356.52015294  .00002038  00000-0  53466-4 0  9996
2 40903  97.4044  24.4860 0013111 312.3792  47.6343 15.39794653126619
KAITUO 1A
1 40904U 15049F   17356.46512505  .00000720  00000-0  42216-4 0  9994
2 40904  97.4559 358.4089 0013344 294.3438 210.0265 15.14819533124747
OBJECT G
1 40905U 15049G   17356.47248595  .00000490  00000-0  30682-4 0  9999
2 40905  97.4546 356.7959 0014307 283.8322  76.1317 15.13805497124681
XW-2C
1 40906U 15049H   17356.51419641  .00000782  00000-0  45440-4 0  9999
2 40906  97.4573 358.3123 0013555 284.0161  75.9564 15.14937361124746
XW-2D
1 40907U 15049J   17356.54920356  .00000827  00000-0  47691-4 0  9993
2 40907  97.4544 358.0687 0012898 281.7615  78.2171 15.15069406124752
LILACSAT 2
1 40908U 15049K   17356.21697915  .00000479  00000-0  30465-4 0  9994
2 40908  97.4650 357.3212 0014512 282.8205  77.1405 15.13359558124609
XW-2F
1 40910U 15049M   17356.16753832  .00001294  00000-0  70468-4 0  9995
2 40910  97.4556 358.6926 0013656 279.4706  80.4983 15.16137963124626
XW-2B
1 40911U 15049N   17356.23034825  .00000844  00000-0  48628-4 0  9991
2 40911  97.4583 358.2221 0012816 283.5213  76.4591 15.15020183124609
KAITUO 1B
1 40912U 15049P   17356.15483068  .00001655  00000-0  83834-4 0  9999
2 40912  97.4509   1.0471 0013601 268.6100 153.4933 15.18309828124807
